| time (UTC) | temp C | wind direction | speed KPH | gust KPH | rain 1hr cm | rain 24hr cm | rain mn cm | humidity % | barometer mb |
| 20260507114514 | 5 | 190 | 8.0 | 17.7 | 0.00 | 0.51 | 0.41 | 92 | 1027.7 |
| 20260507113015 | 5 | 190 | 8.0 | 16.1 | 0.00 | 0.51 | 0.41 | 93 | 1027.7 |
| 20260507111514 | 5 | 190 | 6.4 | 14.5 | 0.00 | 0.51 | 0.41 | 92 | 1027.5 |
| 20260507110011 | 5 | 190 | 6.4 | 17.7 | 0.00 | 0.51 | 0.41 | 93 | 1027.8 |
| 20260507104509 | 5 | 190 | 8.0 | 14.5 | 0.00 | 0.51 | 0.41 | 92 | 1027.9 |
| 20260507103008 | 5 | 190 | 4.8 | 9.7 | 0.00 | 0.51 | 0.41 | 92 | 1027.9 |
| 20260507101507 | 5 | 190 | 6.4 | 9.7 | 0.00 | 0.51 | 0.41 | 92 | 1028.1 |
| 20260507100006 | 5 | 190 | 3.2 | 8.0 | 0.00 | 0.51 | 0.41 | 92 | 1028.1 |
| 20260507094504 | 5 | 190 | 3.2 | 6.4 | 0.00 | 0.51 | 0.41 | 92 | 1028.1 |
| 20260507093004 | 5 | 190 | 3.2 | 6.4 | 0.00 | 0.51 | 0.41 | 92 | 1028.1 |
| 20260507091601 | 5 | 190 | 1.6 | 4.8 | 0.00 | 0.51 | 0.41 | 92 | 1027.9 |
| 20260507084558 | 5 | 190 | 0.0 | 9.7 | 0.00 | 0.51 | 0.41 | 92 | 1027.7 |
| 20260507083053 | 6 | 190 | 3.2 | 6.4 | 0.00 | 0.51 | 0.41 | 93 | 1028.1 |
| 20260507081552 | 6 | 190 | 1.6 | 6.4 | 0.00 | 0.51 | 0.41 | 93 | 1027.9 |
| 20260507080050 | 6 | 190 | 0.0 | 4.8 | 0.03 | 0.51 | 0.41 | 93 | 1028.0 |
| 20260507074551 | 6 | 190 | 0.0 | 3.2 | 0.08 | 0.51 | 0.41 | 93 | 1028.2 |
| 20260507073054 | 6 | 190 | 0.0 | 0.0 | 0.20 | 0.51 | 0.41 | 92 | 1028.4 |
| 20260507071547 | 6 | 190 | 0.0 | 0.0 | 0.30 | 0.51 | 0.41 | 92 | 1028.6 |
| 20260507070054 | 6 | 190 | 0.0 | 0.0 | 0.30 | 0.61 | 0.38 | 92 | 1028.5 |
| 20260507064551 | 6 | 190 | 0.0 | 0.0 | 0.30 | 0.56 | 0.33 | 92 | 1029.1 |
| 20260507063043 | 6 | 190 | 0.0 | 0.0 | 0.20 | 0.43 | 0.20 | 92 | 1029.3 |
| 20260507061542 | 6 | 190 | 1.6 | 6.4 | 0.10 | 0.33 | 0.10 | 91 | 1028.9 |
| 20260507060050 | 6 | 190 | 0.0 | 6.4 | 0.10 | 0.30 | 0.08 | 91 | 1028.9 |
| 20260507054539 | 6 | 190 | 0.0 | 6.4 | 0.08 | 0.25 | 0.03 | 90 | 1029.2 |
| 20260507053036 | 6 | 190 | 0.0 | 6.4 | 0.05 | 0.23 | 0.00 | 90 | 1028.6 |
| 20260507051532 | 6 | 190 | 0.0 | 4.8 | 0.08 | 0.23 | 0.00 | 89 | 1028.3 |
| 20260507050032 | 6 | 190 | 0.0 | 8.0 | 0.08 | 0.20 | 0.20 | 89 | 1028.8 |
| 20260507044529 | 6 | 190 | 0.0 | 6.4 | 0.05 | 0.18 | 0.18 | 88 | 1029.1 |
| 20260507043028 | 6 | 190 | 0.0 | 3.2 | 0.05 | 0.18 | 0.18 | 86 | 1029.1 |
| 20260507041527 | 6 | 190 | 1.6 | 8.0 | 0.03 | 0.15 | 0.15 | 84 | 1028.0 |
| 20260507040026 | 6 | 190 | 4.8 | 11.3 | 0.00 | 0.13 | 0.13 | 81 | 1028.4 |
| 20260507034524 | 7 | 190 | 3.2 | 16.1 | 0.00 | 0.13 | 0.13 | 80 | 1027.6 |
| 20260507033030 | 7 | 190 | 6.4 | 16.1 | 0.00 | 0.13 | 0.13 | 75 | 1028.3 |
| 20260507031529 | 8 | 190 | 12.9 | 25.7 | 0.00 | 0.13 | 0.13 | 68 | 1028.1 |
| 20260507030019 | 9 | 190 | 11.3 | 20.9 | 0.00 | 0.13 | 0.13 | 64 | 1027.4 |
| 20260507024520 | 10 | 190 | 9.7 | 27.4 | 0.00 | 0.13 | 0.13 | 60 | 1027.1 |
| 20260507023015 | 10 | 190 | 14.5 | 25.7 | 0.00 | 0.13 | 0.13 | 59 | 1026.8 |
| 20260507021516 | 10 | 190 | 12.9 | 25.7 | 0.00 | 0.13 | 0.13 | 59 | 1026.5 |
| 20260507020012 | 10 | 190 | 11.3 | 24.1 | 0.00 | 0.13 | 0.13 | 58 | 1026.0 |
| 20260507014509 | 11 | 190 | 12.9 | 22.5 | 0.00 | 0.13 | 0.13 | 57 | 1025.5 |
| 20260507013004 | 11 | 190 | 11.3 | 20.9 | 0.00 | 0.13 | 0.13 | 55 | 1024.9 |
| 20260507011511 | 11 | 190 | 6.4 | 16.1 | 0.00 | 0.13 | 0.13 | 55 | 1024.5 |
| 20260507010004 | 11 | 190 | 4.8 | 14.5 | 0.00 | 0.13 | 0.13 | 54 | 1024.0 |
| 20260507004502 | 12 | 190 | 4.8 | 12.9 | 0.00 | 0.13 | 0.13 | 53 | 1023.4 |
| 20260507003002 | 12 | 190 | 6.4 | 16.1 | 0.00 | 0.13 | 0.13 | 52 | 1023.2 |
| 20260507001610 | 12 | 190 | 1.6 | 12.9 | 0.00 | 0.13 | 0.13 | 51 | 1023.0 |
| 20260507000058 | 13 | 190 | 4.8 | 12.9 | 0.00 | 0.13 | 0.13 | 50 | 1022.7 |
| 20260506234605 | 13 | 190 | 3.2 | 9.7 | 0.00 | 0.13 | 0.13 | 49 | 1022.7 |
| 20260506233058 | 13 | 190 | 6.4 | 17.7 | 0.00 | 0.13 | 0.13 | 49 | 1022.4 |
| 20260506231556 | 13 | 190 | 6.4 | 16.1 | 0.00 | 0.13 | 0.13 | 49 | 1022.1 |
| 20260506230056 | 13 | 190 | 6.4 | 16.1 | 0.00 | 0.13 | 0.13 | 51 | 1022.2 |
| 20260506224550 | 13 | 190 | 6.4 | 14.5 | 0.00 | 0.13 | 0.13 | 50 | 1022.2 |
| 20260506223049 | 13 | 190 | 3.2 | 12.9 | 0.00 | 0.13 | 0.13 | 52 | 1022.3 |
| 20260506221548 | 13 | 190 | 1.6 | 12.9 | 0.00 | 0.13 | 0.13 | 53 | 1022.5 |
| 20260506220052 | 13 | 190 | 6.4 | 11.3 | 0.00 | 0.13 | 0.13 | 52 | 1022.7 |
| 20260506214548 | 13 | 190 | 3.2 | 11.3 | 0.00 | 0.13 | 0.13 | 54 | 1022.9 |
| 20260506213047 | 13 | 190 | 1.6 | 9.7 | 0.00 | 0.13 | 0.13 | 54 | 1022.9 |
| 20260506211549 | 13 | 190 | 4.8 | 11.3 | 0.00 | 0.13 | 0.13 | 53 | 1023.0 |
| 20260506210048 | 12 | 190 | 1.6 | 11.3 | 0.00 | 0.13 | 0.13 | 56 | 1023.0 |
| 20260506204544 | 13 | 190 | 8.0 | 16.1 | 0.00 | 0.13 | 0.13 | 54 | 1023.1 |
| 20260506203043 | 12 | 190 | 4.8 | 11.3 | 0.00 | 0.13 | 0.13 | 56 | 1023.1 |
| 20260506201542 | 13 | 190 | 4.8 | 9.7 | 0.00 | 0.13 | 0.13 | 54 | 1023.3 |
| 20260506200040 | 12 | 190 | 3.2 | 8.0 | 0.00 | 0.13 | 0.13 | 60 | 1023.5 |
| 20260506194537 | 12 | 190 | 3.2 | 14.5 | 0.00 | 0.13 | 0.13 | 60 | 1023.6 |
| 20260506193034 | 11 | 190 | 0.0 | 8.0 | 0.00 | 0.13 | 0.13 | 61 | 1023.6 |
| 20260506191534 | 11 | 190 | 3.2 | 11.3 | 0.00 | 0.13 | 0.13 | 61 | 1023.7 |
| 20260506190037 | 10 | 190 | 4.8 | 12.9 | 0.00 | 0.13 | 0.13 | 65 | 1023.6 |
| 20260506184533 | 10 | 190 | 3.2 | 11.3 | 0.00 | 0.13 | 0.13 | 70 | 1024.0 |
| 20260506183023 | 9 | 190 | 3.2 | 9.7 | 0.00 | 0.13 | 0.13 | 73 | 1024.2 |
| 20260506181521 | 8 | 190 | 4.8 | 9.7 | 0.00 | 0.13 | 0.13 | 78 | 1024.5 |
| 20260506180026 | 7 | 190 | 3.2 | 9.7 | 0.00 | 0.13 | 0.13 | 81 | 1024.8 |
| 20260506174521 | 6 | 190 | 4.8 | 9.7 | 0.00 | 0.13 | 0.13 | 84 | 1024.9 |
| 20260506173022 | 6 | 190 | 4.8 | 14.5 | 0.00 | 0.13 | 0.13 | 85 | 1025.1 |
| 20260506171519 | 6 | 190 | 4.8 | 9.7 | 0.00 | 0.13 | 0.13 | 84 | 1025.1 |
| 20260506170015 | 6 | 190 | 3.2 | 11.3 | 0.00 | 0.13 | 0.13 | 84 | 1025.0 |
| 20260506164512 | 6 | 190 | 6.4 | 12.9 | 0.00 | 0.13 | 0.13 | 83 | 1024.6 |
| 20260506163011 | 6 | 190 | 3.2 | 9.7 | 0.00 | 0.13 | 0.13 | 82 | 1024.3 |
| 20260506161508 | 7 | 190 | 4.8 | 9.7 | 0.00 | 0.13 | 0.13 | 81 | 1024.0 |
| 20260506160006 | 6 | 190 | 3.2 | 11.3 | 0.00 | 0.13 | 0.13 | 81 | 1023.9 |
| 20260506154505 | 6 | 190 | 3.2 | 14.5 | 0.00 | 0.13 | 0.13 | 82 | 1023.6 |
| 20260506153003 | 6 | 190 | 3.2 | 9.7 | 0.00 | 0.13 | 0.13 | 81 | 1023.6 |
| 20260506151603 | 6 | 190 | 3.2 | 11.3 | 0.00 | 0.13 | 0.13 | 80 | 1023.4 |
| 20260506150059 | 6 | 190 | 0.0 | 12.9 | 0.00 | 0.13 | 0.13 | 79 | 1023.1 |
| 20260506144556 | 7 | 190 | 3.2 | 8.0 | 0.00 | 0.13 | 0.13 | 77 | 1023.0 |
| 20260506143056 | 7 | 190 | 3.2 | 6.4 | 0.00 | 0.13 | 0.13 | 72 | 1022.8 |
| 20260506141555 | 7 | 190 | 3.2 | 9.7 | 0.00 | 0.13 | 0.13 | 72 | 1022.7 |
| 20260506140054 | 7 | 190 | 1.6 | 11.3 | 0.00 | 0.13 | 0.13 | 73 | 1022.6 |
| 20260506134552 | 7 | 190 | 4.8 | 11.3 | 0.00 | 0.13 | 0.13 | 74 | 1021.9 |
| 20260506133051 | 6 | 190 | 4.8 | 9.7 | 0.00 | 0.13 | 0.13 | 74 | 1022.5 |
| 20260506131557 | 6 | 190 | 6.4 | 11.3 | 0.00 | 0.13 | 0.13 | 76 | 1022.0 |
| 20260506130103 | 6 | 190 | 4.8 | 11.3 | 0.00 | 0.13 | 0.13 | 76 | 1021.9 |
| 20260506124557 | 6 | 190 | 3.2 | 8.0 | 0.00 | 0.13 | 0.13 | 76 | 1022.0 |
| 20260506123049 | 6 | 190 | 4.8 | 8.0 | 0.00 | 0.13 | 0.13 | 76 | 1022.4 |
| 20260506121548 | 6 | 190 | 0.0 | 8.0 | 0.00 | 0.13 | 0.13 | 75 | 1022.6 |
| 20260506120046 | 6 | 190 | 1.6 | 8.0 | 0.00 | 0.13 | 0.13 | 75 | 1021.8 |